Regional Weather Roundup
Issued by NWS

Home | Current Version | Previous Version | Graphics & Text | Print | Product List | Glossary On
Versions: 1 2 3 4 5 6 7 8 9 10 11 12 13 14 15 16 17 18 19 20 21 22 23 24 25 26 27 28 29 30 31 32 33 34 35 36 37 38 39 40 41 42 43 44 45 46 47 48 49 50
000
ASUS45 KABQ 200610
RWRNM
WEATHER ROUNDUP FOR NEW MEXICO
NATIONAL WEATHER SERVICE ALBUQUERQUE NM
1200 AM MDT WED AUG 20 2014

NOTE: "FAIR" MEANS FEW OR NO CLOUDS BELOW 12,000 FEET AGL WITH NO
       SIGNIFICANT WEATHER OR OBSTRUCTIONS TO VISION.

      THIS PRODUCT IS RELEASED AS TWO VERSIONS.  ONE VERSION NEAR
      THE TOP OF THE HOUR CONTAINING PRELIMINARY DATA FROM ALBUQUERQUE
      AND OTHER STATIONS.  A FINAL VERSION WITH ADDITIONAL DATA IS
      ISSUED ABOUT 10 MINUTES AFTER THE HOUR.

NMZ501-503-504-510>518-200700-
NORTHWEST PLATEAU/NORTHCENTRAL MOUNTAINS

CITY           SKY/WX    TMP DP  RH WIND       PRES   REMARKS
FARMINGTON     MOCLDY    65  58  78 CALM      30.04R
6HR MIN TEMP:  64; 6HR MAX TEMP:  72; 6HR PCP:  0.03;

LOS ALAMOS     MOCLDY    67  46  47 W10       30.15R
SANTA FE       PTCLDY    68  47  46 SW3       30.08R
6HR MIN TEMP:  67; 6HR MAX TEMP:  83;

TAOS           CLOUDY    63  45  51 SE6       30.14S
ANGEL FIRE     CLOUDY    55  49  82 SW3       30.22F

$$
NMZ402-403-502-505>509-200700-
WESTCENTRAL MOUNTAINS/SOUTHWEST MOUNTAINS

CITY           SKY/WX    TMP DP  RH WIND       PRES   REMARKS
GALLUP         MOCLDY    60  54  80 S10       30.13S
6HR MIN TEMP:  60; 6HR MAX TEMP:  70; 6HR PCP:  0.01;

SILVER CITY    MOCLDY    64  54  68 MISG      30.09S

$$
NMZ407-409-411-412-200700-
SOUTHERN DESERTS

CITY           SKY/WX    TMP DP  RH WIND       PRES   REMARKS
LORDSBURG      FAIR      63  59  88 W9        30.04S
DEMING         NOT AVBL
LAS CRUCES     PTCLDY    69  57  64 W9        30.01S
HOLLOMAN AFB   MOCLDY    77  59  53 SE8       29.95R
ALAMOGORDO     MOCLDY    73  57  56 S6        29.97S
T OR C         CLOUDY    73  55  53 NW14      29.99S
6HR MIN TEMP:  73; 6HR MAX TEMP:  77; 6HR PCP: TRACE;


$$
NMZ519>523-200700-
CENTRAL VALLEYS/CENTRAL HIGHLANDS

CITY           SKY/WX    TMP DP  RH WIND       PRES   REMARKS
ALBUQUERQUE    MOCLDY    69  52  54 S7        30.05R
6HR MIN TEMP:  69; 6HR MAX TEMP:  86;

DOUBLE EAGLE   CLOUDY    64  52  63 SW12      30.06S
MORIARTY ARPT  FAIR      63  49  62 SW5       30.10S
6HR MIN TEMP:  63; 6HR MAX TEMP:  82;

CLINES CORNERS CLOUDY    63  49  60 W8        30.12F
6HR MIN TEMP:  63; 6HR MAX TEMP:  79;

BELEN          FAIR      65  55  70 S6        30.05R
6HR MIN TEMP:  65; 6HR MAX TEMP:  85;

SOCORRO        FAIR      72  53  50 NE5       30.01R
6HR MIN TEMP:  72; 6HR MAX TEMP:  88;


$$
NMZ524>526-539-540-200700-
SOUTHCENTRAL MOUNTAINS

CITY           SKY/WX    TMP DP  RH WIND       PRES   REMARKS
RUIDOSO        MOCLDY    61  50  67 SW8       30.15S

$$
NMZ527>531-200700-
NORTHEAST HIGHLANDS/NORTHEAST PLAINS

CITY           SKY/WX    TMP DP  RH WIND       PRES   REMARKS
LAS VEGAS      CLEAR     61  45  55 SW9       30.10S
6HR MIN TEMP:  60; 6HR MAX TEMP:  77;

RATON          MOCLDY    66  48  52 CALM      30.04R
6HR MIN TEMP:  63; 6HR MAX TEMP:  78;

CLAYTON        CLEAR     71  55  56 S12       29.98R
6HR MIN TEMP:  71; 6HR MAX TEMP:  90;


$$
NMZ532>537-200700-
EASTCENTRAL PLAINS

CITY           SKY/WX    TMP DP  RH WIND       PRES   REMARKS
TUCUMCARI      CLEAR     79  56  45 S16       29.89F
6HR MIN TEMP:  79; 6HR MAX TEMP:  95;

CANNON AFB     CLEAR     72  60  65 S9        29.96S
6HR MIN TEMP:  72; 6HR MAX TEMP:  89;

CLOVIS AIRPORT   N/A     73  57  56 SE12      29.98F

$$
NMZ028-029-538-200700-
SOUTHEAST PLAINS

CITY           SKY/WX    TMP DP  RH WIND       PRES   REMARKS
ROSWELL        PTCLDY    80  58  46 SE12      29.88S
6HR MIN TEMP:  79; 6HR MAX TEMP:  94;

ARTESIA        PTCLDY    79  55  44 W9        29.88S
CARLSBAD       PTCLDY    82  57  42 SW7       29.89R
6HR MIN TEMP:  82; 6HR MAX TEMP:  96;

HOBBS          FAIR      77  63  61 S16       29.95R


$$


USA.gov is the U.S. government's official web portal to all federal, state and local government web resources and services.